Location: LDNL
(36.4545°S, 141.6685°E)
Time: 10:44:28
(UTC+10:00)

Explorer 7 - Pass Details

Date: 20 August 2022
Orbit: 482 x 668 km, 50.3° (Epoch: 26 September)

Event Time Altitude Azimuth Distance (km) Brightness Sun altitude
Rises 14:35:50 0° 329° (NNW) 2,957 11.6 33.6°
Reaches altitude 10° 14:38:13 10° 335° (NNW) 2,070 11.1 33.3°
Maximum altitude 14:42:46 43° 46° (NE) 944 8.4 32.8°
Drops below altitude 10° 14:47:24 10° 117° (ESE) 2,113 9.4 32.2°
Sets 14:49:51 0° 123° (ESE) 3,026 10.1 31.9°
